Location: Latina
(41.4670°N, 12.8670°E)
Time: 17:40:25
(UTC+02:00)

ISS - Pass Details

Date: 16 May 2021
Orbit: 417 x 422 km, 51.6° (Epoch: 18 June)

Event Time Altitude Azimuth Distance (km) Brightness Sun altitude
Rises 22:49:39 0° 266° (W) 2,359 0.5 -21.6°
Reaches altitude 10° 22:51:59 10° 280° (W) 1,498 -0.4 -21.9°
Maximum altitude 22:54:50 25° 339° (NNW) 889 -1.4 -22.2°
Drops below altitude 10° 22:57:43 10° 37° (NE) 1,505 -0.7 -22.5°
Sets 23:00:04 0° 51° (NE) 2,373 0.2 -22.7°
